Flag for Kazakhstan Weather past 2 weeks in Aqtobe, Kazakhstan

Now
86 °F

Passing clouds.


Feels Like: 83 °F
Forecast: 61 / 90 °F
Wind: 8 mph from Northwest

Location: Aktjubinsk

Current Time: Jul 29, 2015 at 7:14:37 PM

Latest Report: Jul 29, 2015 at 6:30 PM


Visibility: N/A

Pressure: 29.83 "Hg

Humidity: 17%

Dew point: 36 °F

Location of AqtobeLocation

Historic Weather in Aqtobe — Graph

°F

Aqtobe temperature yesterday

Maximum temperature yesterday: 82 °F (at 3:00 PM)
Minimum temperature yesterday: 54 °F (at 5:00 AM)
Average temperature yesterday: 71 °F

Past Weeks' High & Low Weather Summary

 TemperatureHumidityPressure
High95 °F (Jul 16, 5:30 PM)100% (Jul 23, 12:00 AM)29.98 "Hg (Jul 23, 12:00 AM)
Low48 °F (Jul 19, 5:00 AM)12% (Jul 15, 4:00 PM)29.62 "Hg (Jul 17, 2:00 PM)
Average73 °F43%29.80 "Hg
* Reported Jul 14 6:00 PM — Jul 29 6:00 PM, Aqtobe, Weather by CustomWeather, © 2015

Note: Actual official high and low records may vary slightly from our data, if they occured in-between our weather recording intervals... More about our weather records

Advertising

Aqtobe weather history for previous 24 hours

 ConditionsComfort  
Time TempWeatherWind HumidityBarometerVisibility
6:00 PM
Wed, Jul 29
86 °FPassing clouds.6 mph17%29.83 "HgN/A
5:30 PM86 °FSunny.6 mph18%29.83 "Hg10 mi
5:00 PM86 °FPassing clouds.3 mph17%29.83 "HgN/A
4:30 PM86 °FPassing clouds.6 mph17%29.83 "HgN/A
4:00 PM86 °FSunny.10 mph15%29.83 "Hg10 mi
3:30 PM84 °FPassing clouds.8 mph16%29.83 "HgN/A
3:00 PM84 °FPassing clouds.6 mph18%29.83 "HgN/A
2:30 PM82 °FPassing clouds.8 mph20%29.83 "HgN/A
2:00 PM82 °FSunny.3 mph20%29.86 "Hg10 mi
1:30 PM82 °FPassing clouds.3 mph20%29.86 "HgN/A
1:00 PM81 °FClear.6 mph23%29.86 "HgN/A
12:30 PM79 °FClear.6 mph26%29.86 "Hg5 mi
12:00 PM79 °FClear.3 mph26%29.86 "Hg4 mi
11:30 AM77 °FClear.6 mph30%29.86 "Hg4 mi
11:00 AM75 °FClear.6 mph34%29.89 "Hg4 mi
10:30 AM75 °FClear.6 mph34%29.89 "Hg4 mi
10:00 AM73 °FClear.6 mph36%29.89 "Hg3 mi
9:30 AM72 °FClear.3 mph38%29.89 "HgN/A
9:00 AM70 °FClear.3 mph40%29.89 "HgN/A
8:30 AM68 °FClear.3 mph46%29.89 "HgN/A
8:00 AM64 °FClear.3 mph49%29.89 "HgN/A
7:30 AM63 °FClear.1 mph52%29.89 "HgN/A
7:00 AM59 °FClear.No wind63%29.89 "HgN/A
6:30 AM57 °FSunny.No wind63%29.89 "Hg10 mi
6:00 AM52 °FSunny.No wind67%29.89 "Hg10 mi
5:30 AM54 °FClear.No wind72%29.86 "Hg10 mi
5:00 AM54 °FClear.No wind67%29.86 "Hg10 mi
4:30 AM55 °FClear.No wind59%29.86 "Hg10 mi
4:00 AM57 °FClear.No wind63%29.86 "Hg10 mi
3:30 AM59 °FClear.No wind59%29.86 "Hg10 mi
3:00 AM59 °FClear.No wind59%29.86 "Hg10 mi
2:30 AM63 °FClear.No wind52%29.86 "Hg10 mi
2:00 AM66 °FClear.3 mph46%29.83 "Hg10 mi
1:30 AM66 °FClear.8 mph46%29.83 "Hg10 mi
1:00 AM68 °FClear.3 mph43%29.83 "Hg10 mi
12:30 AM68 °FClear.3 mph43%29.83 "Hg10 mi
12:00 AM70 °FClear.8 mph38%29.83 "Hg10 mi
11:30 PM
Tue, Jul 28
70 °FClear.6 mph38%29.83 "Hg10 mi
11:00 PM72 °FClear.6 mph36%29.83 "Hg10 mi
10:30 PM72 °FClear.8 mph33%29.83 "Hg10 mi
10:00 PM73 °FClear.6 mph29%29.83 "Hg10 mi
9:30 PM75 °FClear.8 mph27%29.83 "Hg10 mi
9:00 PM75 °FSunny.8 mph27%29.83 "Hg10 mi
8:30 PM77 °FSunny.8 mph26%29.80 "Hg10 mi
8:00 PM79 °FSunny.10 mph24%29.80 "Hg10 mi
7:30 PM81 °FSunny.13 mph21%29.80 "Hg10 mi
7:00 PM81 °FSunny.13 mph21%29.80 "Hg10 mi
Weather by CustomWeather, © 2015

See weather overviewHow to use our weather pages